Marion, VA

1:19 AM EST on December 12, 2017 (GMT -0500)
Mountain Empire

Weather History for KMKJ - November, 2013

Change the Weather History Date:

Friday, November 29, 2013

  Actual Average (KBLF) Record (KBLF)
Temperature  
Mean Temperature 34 °F -  
Max Temperature 45 °F 46 °F 71 °F (2006)
Min Temperature 23 °F 31 °F 9 °F (1959)
Degree Days  
Heating Degree Days 31    
Moisture  
Dew Point 22 °F    
Average Humidity 69    
Maximum Humidity 89    
Minimum Humidity 39    
Precipitation  
Precipitation 0.00 in - - ()
Sea Level Pressure  
Sea Level Pressure 30.50 in    
Wind  
Wind Speed 6 mph (SW)    
Max Wind Speed 13 mph    
Max Gust Speed -    
Visibility 10 miles    
Events      
Averages and records for this station are not official NWS values.
T = Trace of Precipitation, MM = Missing Value Source: NWS Daily Summary

Daily Weather History Graph

Daily Weather History Graph

Search for Another Location

Airport or City:

Trip Planner

Search our weather history database for the weather conditions in past years. The results will help you decide how hot, cold, wet, or windy it might be!

Date:

Astronomy

Nov. 29, 2013 Rise Set
Actual Time 7:18 AM EST 5:09 PM EST
Civil Twilight 6:49 AM EST 5:37 PM EST
Nautical Twilight 6:17 AM EST 6:09 PM EST
Astronomical Twilight 5:46 AM EST 6:41 PM EST
Moon 3:27 AM EST (11/29) 2:48 PM EST (11/29)
Length of Visible Light 10h 48m
Length of Day
9h 51m
Waning Crescent, 14% of the Moon is Illuminated
Nov 29
Waning Crescent
Dec 2
New
Dec 9
First Quarter
Dec 17
Full
Dec 25
Last Quarter

Hourly Weather History & Observations

Time (EST) Temp. Windchill Dew Point Humidity Pressure Visibility Wind Dir Wind Speed Gust Speed Precip Events Conditions
12:15 AM 26.4 °F 20.9 °F 20.7 °F 79% 30.42 in 10.0 mi West 4.6 mph - N/A   Clear
12:35 AM 25.5 °F 18.7 °F 20.3 °F 81% 30.42 in 10.0 mi West 5.8 mph - N/A   Clear
12:55 AM 25.7 °F 18.0 °F 20.3 °F 80% 30.42 in 10.0 mi WSW 6.9 mph - N/A   Clear
1:15 AM 25.5 °F 18.7 °F 20.3 °F 81% 30.42 in 10.0 mi WSW 5.8 mph - N/A   Clear
1:35 AM 24.8 °F 16.9 °F 20.5 °F 84% 30.42 in 10.0 mi West 6.9 mph - N/A   Clear
1:55 AM 26.1 °F 18.4 °F 20.8 °F 81% 30.43 in 10.0 mi West 6.9 mph - N/A   Clear
2:15 AM 24.3 °F 18.4 °F 19.9 °F 84% 30.43 in 10.0 mi WSW 4.6 mph - N/A   Clear
2:35 AM 23.9 °F - 19.6 °F 84% 30.43 in 10.0 mi Calm Calm - N/A   Clear
2:55 AM 24.1 °F 19.7 °F 20.1 °F 85% 30.44 in 10.0 mi West 3.5 mph - N/A   Clear
3:15 AM 24.4 °F 18.6 °F 20.5 °F 85% 30.44 in 10.0 mi West 4.6 mph - N/A   Clear
3:35 AM 23.5 °F 17.6 °F 20.3 °F 87% 30.44 in 10.0 mi West 4.6 mph - N/A   Clear
3:55 AM 23.7 °F 15.6 °F 20.5 °F 87% 30.44 in 10.0 mi WSW 6.9 mph - N/A   Clear
4:15 AM 24.1 °F 16.0 °F 20.8 °F 87% 30.44 in 10.0 mi WSW 6.9 mph - N/A   Clear
4:35 AM 24.6 °F 15.8 °F 20.8 °F 86% 30.44 in 10.0 mi WSW 8.1 mph - N/A   Clear
4:55 AM 25.2 °F 16.5 °F 21.0 °F 84% 30.46 in 10.0 mi WSW 8.1 mph - N/A   Clear
5:15 AM 25.2 °F 16.5 °F 21.0 °F 84% 30.46 in 10.0 mi WSW 8.1 mph - N/A   Clear
5:35 AM 24.8 °F 15.3 °F 20.8 °F 85% 30.46 in 10.0 mi WSW 9.2 mph - N/A   Clear
5:55 AM 24.6 °F 15.1 °F 21.0 °F 86% 30.46 in 10.0 mi WSW 9.2 mph - N/A   Clear
6:15 AM 24.4 °F 14.9 °F 20.8 °F 86% 30.47 in 10.0 mi WSW 9.2 mph - N/A   Clear
6:35 AM 23.9 °F 14.2 °F 21.0 °F 89% 30.48 in 10.0 mi WSW 9.2 mph - N/A   Clear
6:55 AM 23.9 °F 13.5 °F 20.8 °F 88% 30.49 in 10.0 mi WSW 10.4 mph - N/A   Clear
7:15 AM 24.6 °F 13.8 °F 21.2 °F 87% 30.49 in 10.0 mi WSW 11.5 mph - N/A   Clear
7:35 AM 24.8 °F 13.4 °F 21.4 °F 87% 30.49 in 10.0 mi WSW 12.7 mph - N/A   Clear
7:55 AM 25.7 °F 14.6 °F 21.6 °F 84% 30.50 in 10.0 mi WSW 12.7 mph - N/A   Clear
8:15 AM 26.4 °F 15.5 °F 22.1 °F 84% 30.51 in 10.0 mi WSW 12.7 mph - N/A   Clear
8:35 AM 27.7 °F 17.6 °F 23.0 °F 83% 30.51 in 10.0 mi WSW 11.5 mph - N/A   Clear
8:55 AM 29.3 °F 19.1 °F 23.2 °F 78% 30.52 in 10.0 mi WSW 12.7 mph - N/A   Clear
9:15 AM 30.4 °F 20.5 °F 23.9 °F 77% 30.53 in 10.0 mi WSW 12.7 mph - N/A   Clear
9:35 AM 31.8 °F 22.8 °F 23.5 °F 71% 30.54 in 10.0 mi West 11.5 mph - N/A   Clear
9:55 AM 32.9 °F 24.7 °F 23.0 °F 67% 30.54 in 10.0 mi WSW 10.4 mph - N/A   Clear
10:15 AM 34.7 °F 28.1 °F 22.5 °F 61% 30.54 in 10.0 mi WSW 8.1 mph - N/A   Clear
10:35 AM 35.8 °F 28.8 °F 21.9 °F 57% 30.54 in 10.0 mi WSW 9.2 mph - N/A   Clear
10:55 AM 36.7 °F 29.9 °F 22.1 °F 56% 30.54 in 10.0 mi WSW 9.2 mph - N/A   Clear
11:15 AM 37.8 °F 32.5 °F 21.2 °F 51% 30.54 in 10.0 mi SW 6.9 mph - N/A   Clear
11:35 AM 39.0 °F 34.8 °F 22.6 °F 52% 30.54 in 10.0 mi SSW 5.8 mph - N/A   Clear
11:55 AM 39.4 °F 34.5 °F 22.1 °F 50% 30.53 in 10.0 mi SSW 6.9 mph - N/A   Clear
12:15 PM 41.0 °F 36.4 °F 23.5 °F 50% 30.53 in 10.0 mi WSW 6.9 mph - N/A   Clear
12:35 PM 41.2 °F 36.6 °F 22.6 °F 48% 30.52 in 10.0 mi WSW 6.9 mph - N/A   Clear
12:55 PM 42.3 °F 37.9 °F 23.2 °F 47% 30.51 in 10.0 mi WSW 6.9 mph - N/A   Clear
1:15 PM 42.8 °F 39.3 °F 23.2 °F 46% 30.51 in 10.0 mi SW 5.8 mph - N/A   Clear
1:35 PM 43.9 °F 40.5 °F 24.6 °F 47% 30.51 in 10.0 mi WSW 5.8 mph - N/A   Clear
1:55 PM 44.1 °F 40.8 °F 23.9 °F 45% 30.50 in 10.0 mi SW 5.8 mph - N/A   Clear
2:15 PM 44.6 °F 40.7 °F 23.0 °F 43% 30.50 in 10.0 mi SSW 6.9 mph - N/A   Clear
2:35 PM 45.0 °F 42.6 °F 23.2 °F 42% 30.49 in 10.0 mi SW 4.6 mph - N/A   Clear
2:55 PM 45.0 °F 42.6 °F 22.3 °F 41% 30.49 in 10.0 mi South 4.6 mph - N/A   Clear
3:15 PM 45.9 °F 43.6 °F 23.2 °F 41% 30.49 in 10.0 mi SW 4.6 mph - N/A   Clear
3:35 PM 45.0 °F - 21.4 °F 39% 30.49 in 10.0 mi Calm Calm - N/A   Clear
3:55 PM 45.5 °F 44.2 °F 22.5 °F 40% 30.50 in 10.0 mi WSW 3.5 mph - N/A   Clear
4:15 PM 44.6 °F 43.1 °F 22.3 °F 41% 30.50 in 10.0 mi WSW 3.5 mph - N/A   Clear
4:35 PM 44.6 °F 43.1 °F 21.0 °F 39% 30.50 in 10.0 mi WSW 3.5 mph - N/A   Clear
4:55 PM 43.7 °F - 20.5 °F 40% 30.51 in 10.0 mi Calm Calm - N/A   Clear
5:15 PM 41.5 °F - 21.7 °F 45% 30.51 in 10.0 mi Calm Calm - N/A   Clear
5:35 PM 38.5 °F - 25.2 °F 59% 30.51 in 10.0 mi Calm Calm - N/A   Clear
5:55 PM 35.6 °F - 25.5 °F 67% 30.52 in 10.0 mi Calm Calm - N/A   Clear
6:15 PM 33.8 °F - 25.3 °F 71% 30.52 in 10.0 mi Calm Calm - N/A   Clear
6:35 PM 33.1 °F - 25.5 °F 74% 30.53 in 10.0 mi Calm Calm - N/A   Clear
6:55 PM 32.2 °F - 24.6 °F 74% 30.53 in 10.0 mi Calm Calm - N/A   Clear
7:15 PM 32.2 °F - 24.8 °F 74% 30.54 in 10.0 mi Calm Calm - N/A   Clear
7:35 PM 32.0 °F 28.7 °F 24.8 °F 75% 30.54 in 10.0 mi ENE 3.5 mph - N/A   Clear
7:55 PM 32.9 °F 29.8 °F 24.6 °F 72% 30.54 in 10.0 mi East 3.5 mph - N/A   Clear
8:15 PM 33.1 °F 28.7 °F 23.9 °F 69% 30.54 in 10.0 mi ESE 4.6 mph - N/A   Clear
8:35 PM 32.2 °F 28.9 °F 23.9 °F 72% 30.54 in 10.0 mi East 3.5 mph - N/A   Clear
8:55 PM 32.9 °F 29.8 °F 23.7 °F 69% 30.54 in 10.0 mi ESE 3.5 mph - N/A   Clear
9:15 PM 32.9 °F 29.8 °F 23.5 °F 68% 30.55 in 10.0 mi ESE 3.5 mph - N/A   Clear
9:35 PM 32.0 °F 27.5 °F 23.5 °F 71% 30.55 in 10.0 mi East 4.6 mph - N/A   Clear
9:55 PM 31.5 °F 26.8 °F 23.5 °F 73% 30.55 in 10.0 mi ESE 4.6 mph - N/A   Clear
10:15 PM 31.1 °F 26.4 °F 23.5 °F 74% 30.56 in 10.0 mi ESE 4.6 mph - N/A   Clear
10:35 PM 30.9 °F 25.2 °F 23.7 °F 75% 30.56 in 10.0 mi East 5.8 mph - N/A   Clear
10:55 PM 30.6 °F 27.1 °F 23.7 °F 76% 30.56 in 10.0 mi East 3.5 mph - N/A   Clear
11:15 PM 29.8 °F 23.0 °F 23.7 °F 78% 30.56 in 10.0 mi ENE 6.9 mph - N/A   Clear
11:35 PM 31.3 °F 23.3 °F 23.5 °F 73% 30.56 in 10.0 mi ENE 9.2 mph - N/A   Clear
11:55 PM 30.7 °F 23.3 °F 23.4 °F 74% 30.56 in 10.0 mi NE 8.1 mph - N/A   Clear